This is the latest recevied weather packets stored in our database for station/object K0SNA. If no packets are shown the sender has not sent any weather packets the latest 10 day(s).
| Time | Temp. | Humidity | Pressure | Rain* | Wind** | Luminosity | Snow |
|---|---|---|---|---|---|---|---|
| 1777739948 | 13.89° C | 37% | 1017.9 hPa | 0 mm | - | 598 W/m² | - |
| 1777739644 | 13.89° C | 35% | 1018 hPa | 0 mm | - | 633 W/m² | - |
| 1777739342 | 13.89° C | 36% | 1018.2 hPa | 0 mm | - | 611 W/m² | - |
| 1777739038 | 13.33° C | 37% | 1018.3 hPa | 0 mm | - | 612 W/m² | - |
| 1777738735 | 13.89° C | 37% | 1018.3 hPa | 0 mm | - | 611 W/m² | - |
| 1777738431 | 12.78° C | 37% | 1018.4 hPa | 0 mm | - | 572 W/m² | - |
| 1777738130 | 13.33° C | 37% | 1018.4 hPa | 0 mm | - | 574 W/m² | - |
| 1777737828 | 12.78° C | 38% | 1018.3 hPa | 0 mm | - | 550 W/m² | - |
| 1777737526 | 12.78° C | 37% | 1018.6 hPa | 0 mm | - | 549 W/m² | - |
| 1777737224 | 13.33° C | 38% | 1018.6 hPa | 0 mm | - | 531 W/m² | - |
| 1777736920 | 12.78° C | 40% | 1018.5 hPa | 0 mm | - | 555 W/m² | - |
| 1777736316 | 12.78° C | 41% | 1018.8 hPa | 0 mm | - | 533 W/m² | - |
| 1777736013 | 12.78° C | 41% | 1018.6 hPa | 0 mm | - | 524 W/m² | - |
| 1777735711 | 12.78° C | 41% | 1018.9 hPa | 0 mm | - | 395 W/m² | - |
| 1777735409 | 12.78° C | 41% | 1018.5 hPa | 0 mm | - | 471 W/m² | - |
| 1777735106 | 12.22° C | 43% | 1018.8 hPa | 0 mm | - | 465 W/m² | - |
| 1777734803 | 12.22° C | 42% | 1018.9 hPa | 0 mm | - | 428 W/m² | - |
| 1777734500 | 11.67° C | 45% | 1018.7 hPa | 0 mm | - | 456 W/m² | - |
| 1777734196 | 11.11° C | 47% | 1019.2 hPa | 0 mm | - | 461 W/m² | - |
| 1777733893 | 11.11° C | 48% | 1018.9 hPa | 0 mm | - | 448 W/m² | - |
| 1777733590 | 11.11° C | 49% | 1018.9 hPa | 0 mm | - | 344 W/m² | - |
| 1777733286 | 11.11° C | 49% | 1018.8 hPa | 0 mm | - | 329 W/m² | - |
| 1777732983 | 11.11° C | 49% | 1019.1 hPa | 0 mm | - | 319 W/m² | - |
| 1777732679 | 10.56° C | 50% | 1019 hPa | 0 mm | - | 320 W/m² | - |
| 1777732376 | 10.56° C | 50% | 1019.1 hPa | 0 mm | - | 338 W/m² | - |
* Rain latest hour (hover to see other rain measurements)
** Current wind speed in m/s (hover to see current wind gust speed)